Temp
49 48 48 48 47 47 47 47 47 47 47 47 47 47 48 48 48 50 49 49 51 51
48 48 47 46 47 47 48 49 47 47 46 47 47 47 46 47 47 48 48 49 50 49
48 48 47 47 46 47 47 47 47 46 46 46 46 46 46 45 46 46 47 49 49 48
47 46 47 46 46 47 47 47 47 47 46 45 45 45 45 45 46 46 47 48 48 48
46 46 45 45 45 46 46 47 46 46 45 44 44 44 44 44 46 46 46 46 46 46
45 44 44 44 45 45 45 45 45 44 43 43 43 43 45 46 46 46 46 45 45 46
43 44 43 44 44 44 45 44 44 43 43 43 44 44 45 46 46 45 45 45 45 44
43 43 43 43 43 44 44 43 43 43 44 44 44 45 45 46 45 44 43 44 43 43
42 42 42 42 43 43 42 42 42 43 42 42 43 44 46 45 43 43 42 41 42 42
42 42 41 42 42 42 41 41 41 41 42 41 41 44 45 44 43 41 41 40 40 41
41 41 42 42 42 42 42 42 41 42 41 40 42 43 44 43 42 41 40 40 40 41
42 41 42 41 42 42 42 42 41 41 40 39 40 42 43 41 40 39 38 40 41 41
41 41 40 41 41 42 42 41 41 39 39 40 39 41 43 40 38 36 36 41 42 42
40 40 40 40 40 40 40 41 39 37 37 38 39 40 43 42 39 36 35 39 39 42
MSLP
1021.73 1022.46 1022.51 1022.71 1022.81 1023.28 1023.26 1023.49 1023.66 1023.58 1023.69 1023.71 1023.82 1023.75 1023.69 1023.32 1023.18 1023.19 1023.18 1023.02 1022.91 1022.76
1022.01 1022.30 1022.76 1022.92 1023.14 1023.19 1023.38 1023.30 1023.52 1023.65 1023.56 1023.60 1023.80 1023.73 1023.66 1023.61 1023.36 1023.16 1023.04 1022.84 1022.62 1022.46
1022.28 1022.56 1022.88 1022.96 1023.20 1023.13 1023.28 1023.50 1023.34 1023.62 1023.63 1023.66 1023.60 1023.84 1023.58 1023.56 1023.47 1023.31 1023.01 1022.72 1022.47 1022.26
1022.43 1022.74 1023.09 1023.15 1023.21 1023.19 1023.26 1023.30 1023.61 1023.54 1023.57 1023.59 1023.86 1023.74 1023.47 1023.42 1023.25 1023.02 1022.81 1022.72 1022.33 1022.11
1022.68 1022.89 1023.17 1023.46 1023.36 1023.29 1023.40 1023.50 1023.46 1023.59 1023.61 1023.76 1023.81 1023.66 1023.31 1023.33 1023.36 1023.05 1022.76 1022.58 1022.29 1022.04
1022.70 1023.19 1023.35 1023.69 1023.50 1023.52 1023.58 1023.57 1023.53 1023.69 1023.72 1023.88 1023.77 1023.66 1023.43 1023.30 1023.26 1022.88 1022.63 1022.45 1022.19 1021.92
1022.38 1023.08 1023.53 1023.75 1023.72 1023.67 1023.69 1023.68 1023.81 1023.80 1023.73 1023.81 1023.72 1023.57 1023.36 1023.19 1023.02 1022.68 1022.48 1022.31 1022.13 1022.13
1022.64 1023.04 1023.23 1023.91 1023.94 1023.77 1023.70 1024.01 1023.74 1023.72 1023.70 1023.70 1023.62 1023.36 1023.23 1023.09 1022.80 1022.63 1022.27 1022.27 1022.20 1022.41
1022.80 1023.06 1023.57 1023.90 1023.79 1023.77 1024.03 1023.87 1023.77 1023.78 1023.80 1023.53 1023.48 1023.43 1023.23 1022.96 1022.72 1022.40 1022.33 1022.42 1022.33 1022.36
1022.71 1023.12 1023.59 1023.77 1023.46 1023.87 1023.83 1023.84 1023.75 1023.76 1023.60 1023.62 1023.85 1023.53 1023.09 1022.70 1022.50 1022.50 1022.44 1022.36 1022.24 1022.20
1022.46 1022.81 1023.13 1022.95 1023.50 1023.70 1023.74 1023.73 1023.67 1023.64 1023.69 1023.91 1023.84 1023.41 1022.80 1022.61 1022.67 1022.56 1022.49 1022.34 1022.26 1022.26
1022.12 1022.63 1022.68 1023.00 1023.31 1023.44 1023.55 1023.57 1023.65 1023.67 1023.76 1023.82 1023.65 1023.17 1022.75 1022.81 1022.71 1022.63 1022.71 1022.45 1022.38 1022.47
1022.03 1022.42 1022.76 1023.07 1023.17 1023.35 1023.39 1023.47 1023.60 1023.69 1023.69 1023.63 1023.50 1023.29 1022.83 1022.85 1022.79 1022.93 1022.95 1022.81 1022.65 1022.68
1022.08 1022.29 1022.83 1023.11 1023.24 1023.24 1023.25 1023.39 1023.58 1023.66 1023.71 1023.55 1023.52 1023.27 1022.72 1022.64 1022.93 1023.25 1023.33 1023.12 1023.11 1023.05
Wind_Speed
7 3 4 4 4 3 4 3 3 4 3 4 4 4 4 2 2 3 2 3 4 4
6 6 5 5 4 4 4 3 4 4 4 4 4 4 4 3 4 4 3 5 4 3
5 6 5 5 5 5 4 3 5 4 3 4 5 5 4 3 4 4 4 4 6 5
6 6 4 5 4 4 4 4 3 4 4 5 4 4 4 4 4 4 6 7 7 8
6 5 5 3 4 4 4 3 4 4 4 4 4 5 5 5 5 6 6 7 7 8
7 4 4 3 4 4 3 4 4 3 3 4 5 5 4 5 6 6 6 6 6 5
7 7 3 2 3 3 2 3 2 2 2 3 4 4 5 6 6 4 5 5 3 3
7 7 5 3 2 2 3 1 0 2 3 3 3 3 7 5 5 4 4 2 2 2
5 5 5 4 3 4 2 1 2 3 3 4 4 8 9 4 3 3 3 1 2 2
8 7 6 5 5 2 2 1 2 2 3 4 4 8 6 7 3 2 2 2 2 2
7 8 6 6 3 2 1 1 2 2 2 3 3 8 6 7 3 2 3 3 2 2
7 6 5 5 4 3 1 1 2 2 3 3 4 9 6 4 3 3 4 4 3 2
7 6 5 4 3 2 1 1 2 3 3 4 3 7 2 3 2 3 3 3 3 5
5 6 4 4 2 2 1 1 2 3 4 3 3 5 8 1 3 2 2 2 3 3
Wind_Direction
123 136 111 123 114 123 108 100 71 67 56 43 32 27 13 38 27 10 338 299 270 279
127 122 120 114 112 111 114 103 59 52 57 47 27 22 10 358 358 344 328 307 300 289
120 115 120 109 113 112 98 81 62 41 45 32 23 358 8 352 338 329 327 312 312 302
121 118 109 108 106 106 93 72 70 43 28 25 360 357 2 349 335 337 330 315 305 303
118 116 108 112 113 103 92 78 61 40 33 13 350 350 358 335 316 312 315 313 306 299
127 107 115 133 121 110 99 69 64 64 33 350 345 340 333 324 311 310 311 305 298 315
126 141 127 136 135 141 124 69 11 16 18 336 341 345 338 315 308 311 310 311 353 354
139 141 120 147 167 128 87 243 35 22 11 2 359 358 326 319 327 318 344 17 34 24
124 121 144 162 136 101 181 85 56 37 2 10 3 342 331 356 335 4 21 13 81 51
152 149 163 176 116 157 110 68 41 17 23 13 340 340 354 14 17 17 26 43 50 66
156 155 171 115 132 159 156 60 31 25 14 331 324 342 6 17 2 35 34 41 30 37
153 149 132 145 167 145 135 60 24 10 336 284 307 342 0 30 360 41 40 27 39 75
142 146 135 158 150 162 129 82 15 351 340 277 313 332 3 77 59 52 58 24 50 97
153 131 154 160 156 131 70 67 14 6 334 302 285 313 349 135 92 79 90 57 57 67